Regional Weather Roundup
Issued by NWS

Home | Current Version | Previous Version | Text Only | Print | Product List | Glossary Off
Versions: 1 2 3 4 5 6 7 8 9 10 11 12 13 14 15 16 17 18 19 20 21 22 23 24 25 26 27 28 29 30 31 32 33 34 35 36 37 38 39 40 41 42 43 44 45 46 47 48 49 50

647
ASUS44 KJAN 300910
RWRMS

MISSISSIPPI HOURLY WEATHER ROUNDUP
NATIONAL WEATHER SERVICE JACKSON MS
400 AM CDT THU OCT 30 2014

NOTE: "FAIR: INDICATES FEW OR NO CLOUDS BELOW 12,000 FEET WITH NO
SIGNIFICANT WEATHER AND/OR OBSTRUCTIONS TO VISIBILITY.

MSZ001>002-007>008-010>013-018>021-025>028-034>036-301000-
NORTHWEST MISSISSIPPI

CITY           SKY/WX    TMP DP  RH WIND       PRES   REMARKS
CLARKSDALE     FAIR      48  48 100 CALM      30.15S
CLEVELAND      FAIR      48  48  98 CALM      30.13S
GREENWOOD      CLEAR     44  42  93 NE3       30.13S
GREENVILLE     CLEAR     47  45  93 CALM      30.13S
GRENADA        FAIR      41  41 100 CALM      30.14R
OLIVE BRANCH   CLEAR     39  39 100 CALM      30.15R
OXFORD         FAIR      39  39 100 CALM      30.15S
TUNICA         SUNNY     43  43 100 CALM      30.15S FOG
$$

MSZ003>006-009-014>017-022>024-029>033-037>039-301000-
NORTHEAST MISSISSIPPI

CITY           SKY/WX    TMP DP  RH WIND       PRES   REMARKS
COLUMBUS AFB   CLEAR     42  42  99 CALM      30.12S
CORINTH        FAIR      39  39 100 CALM      30.13S FOG
GOLDN TRIANGLE CLEAR    N/A N/A N/A CALM      30.11S
STARKVILLE     FAIR      39  39 100 CALM      30.12S
TUPELO         CLEAR     44  41  89 N3        30.12S
$$

MSZ040-058-301000-
CENTRAL MISSISSIPPI

CITY           SKY/WX    TMP DP  RH WIND       PRES   REMARKS
JACKSON INTL   CLEAR     44  42  93 CALM      30.12S
JACKSON HAWKNS CLEAR     52  44  74 CALM      30.13S
MERIDIAN KEY   CLEAR     42  40  92 CALM      30.12R
MERIDIAN NAS   CLEAR     42  40  92 CALM      30.12S
RAYMOND        FAIR      41  37  87 CALM      30.13S
VICKSBURG      CLEAR     41  40  96 W3        30.14R
$$

MSZ059>079-301000-
SOUTH MISSISSIPPI

CITY           SKY/WX    TMP DP  RH WIND       PRES   REMARKS
BROOKHAVEN     FAIR      48  45  87 N3        30.13R
COLUMBIA         N/A     45  43  93 MISG      30.09R
HATTIESBURG    CLEAR     50  49  96 CALM      30.10S
MCCOMB         CLEAR     54  44  69 N7        30.10S
NATCHEZ        CLEAR     45  41  87 CALM      30.12S
PINE BELT      CLEAR     48  43  81 N5        30.11S
$$

MSZ080>082-301000-
COASTAL MISSISSIPPI

CITY           SKY/WX    TMP DP  RH WIND       PRES   REMARKS
BILOXI         PTCLDY    60  50  69 NE9       30.05S
PASCAGOULA     CLOUDY    60  54  80 N9        30.05S
GULFPORT       CLOUDY    61  46  57 N8        30.05S
$$



USA.gov is the U.S. government's official web portal to all federal, state and local government web resources and services.